Weather History for Flagstaff, AZ

Change the Weather History Date:

Wednesday, October 26, 2011

  Actual Average Record
Temperature  
Mean Temperature 41 °F 44 °F  
Max Temperature 49 °F 58 °F 75 °F (1959)
Min Temperature 33 °F 29 °F 14 °F (1972)
Degree Days  
Heating Degree Days 24 22  
Month to date heating degree days 428 454  
Since 1 July heating degree days 634 771  
Cooling Degree Days 0 0  
Month to date cooling degree days 0 0  
Year to date cooling degree days 170 117  
Moisture  
Dew Point 39 °F    
Average Humidity 84    
Maximum Humidity 93    
Minimum Humidity 75    
Precipitation  
Precipitation 0.34 in 0.05 in 0.67 in (1982)
Month to date precipitation 2.05 1.39  
Year to date precipitation 16.75 17.96  
Snow  
Snow 0.00 in 0.00 in 2.40 in (1980)
Month to date snowfall T 0.9  
Since 1 July snowfall T 0.9  
Snow Depth 0.00 in    
Sea Level Pressure  
Sea Level Pressure 29.92 in    
Wind  
Wind Speed 11 mph (SE)    
Max Wind Speed 25 mph    
Max Gust Speed 33 mph    
Visibility 9 miles    
Events Rain    
T = Trace of Precipitation, MM = Missing Value Source: NWS Daily Summary

Daily Weather History Graph

Daily Weather History Graph

Search for Another Location

Airport:

Trip Planner

Search our weather history database for the weather conditions in past years. The results will help you decide how hot, cold, wet, or windy it might be!

Date:

Astronomy

Oct. 26, 2011 Rise Set
Actual Time 6:42 AM MST 5:38 PM MST
Civil Twilight 6:16 AM MST 6:04 PM MST
Nautical Twilight 5:46 AM MST 6:34 PM MST
Astronomical Twilight 5:17 AM MST 7:03 PM MST
Moon 6:32 AM MST (10/26) 5:26 PM MST (10/26)
Length of Visible Light 11h 48m
Length of Day
10h 56m
Waning Crescent, 0% of the Moon is Illuminated
Oct 26
Waning Crescent
Oct 26
New
Nov 2
First Quarter
Nov 10
Full
Nov 18
Last Quarter

Hourly Weather History & Observations

Time (MST) Temp. Windchill Dew Point Humidity Pressure Visibility Wind Dir Wind Speed Gust Speed Precip Events Conditions
12:27 AM 46.4 °F 43.5 °F 44.6 °F 93% 30.07 in 10.0 mi WSW 5.8 mph - N/A   Mostly Cloudy
12:57 AM 48.0 °F - 46.0 °F 93% 29.84 in 10.0 mi SW 10.4 mph - N/A   Overcast
1:57 AM 48.9 °F - 46.9 °F 93% 29.79 in 10.0 mi SW 11.5 mph - N/A   Mostly Cloudy
2:57 AM 48.0 °F - 46.9 °F 96% 29.78 in 10.0 mi SW 12.7 mph - N/A   Overcast
3:09 AM 48.2 °F - 46.4 °F 93% 30.02 in 10.0 mi SW 10.4 mph - N/A   Overcast
3:57 AM 48.9 °F - 46.9 °F 93% 29.81 in 10.0 mi SSW 12.7 mph 21.9 mph 0.00 in   Overcast
4:49 AM 48.2 °F - 46.4 °F 93% 30.00 in 10.0 mi SW 13.8 mph - 0.00 in Rain Light Rain
4:57 AM 48.9 °F - 46.0 °F 90% 29.79 in 10.0 mi SW 10.4 mph - 0.00 in   Overcast
5:00 AM - - - N/A% - - North - - N/A   Unknown
5:14 AM 48.2 °F - 46.4 °F 93% 30.00 in 10.0 mi SW 10.4 mph - N/A   Overcast
5:38 AM 46.4 °F 40.7 °F 44.6 °F 93% 30.00 in 7.0 mi SSW 12.7 mph 19.6 mph 0.06 in Rain Light Rain
5:57 AM 46.9 °F - 45.0 °F 93% 29.80 in 10.0 mi SSW 10.4 mph - 0.07 in Rain Light Rain
6:31 AM 46.4 °F 40.4 °F 44.6 °F 93% 29.98 in 10.0 mi SSW 13.8 mph 21.9 mph 0.00 in   Mostly Cloudy
6:48 AM 46.4 °F 40.1 °F 44.6 °F 93% 29.98 in 10.0 mi SSW 15.0 mph - 0.00 in   Mostly Cloudy
6:57 AM 46.0 °F 38.5 °F 43.0 °F 89% 29.81 in 10.0 mi SSW 19.6 mph 24.2 mph 0.00 in   Partly Cloudy
7:57 AM 46.9 °F - 44.1 °F 90% 29.82 in 10.0 mi SW 12.7 mph - N/A   Partly Cloudy
8:57 AM 46.9 °F - 43.0 °F 86% 29.81 in 10.0 mi South 8.1 mph - N/A   Mostly Cloudy
9:36 AM 46.4 °F 39.2 °F 44.6 °F 93% 30.00 in 9.0 mi WSW 18.4 mph 25.3 mph 0.01 in Rain Light Rain
9:42 AM 42.8 °F 38.6 °F 39.2 °F 87% 30.00 in 2.5 mi Variable 6.9 mph 25.3 mph 0.03 in Rain Heavy Rain
9:44 AM 41.0 °F 36.4 °F 39.2 °F 93% 30.00 in 1.8 mi NNW 6.9 mph 25.3 mph 0.06 in Rain Heavy Rain
9:52 AM 39.2 °F 35.0 °F 37.4 °F 93% 30.01 in 5.0 mi NW 5.8 mph - 0.13 in Rain Rain
9:57 AM 39.9 °F 35.8 °F 37.9 °F 93% 29.85 in 5.0 mi Variable 5.8 mph - 0.15 in Rain Rain
10:19 AM 39.2 °F - 39.2 °F 100% 30.01 in 4.0 mi Calm Calm - 0.08 in Rain Rain
10:57 AM 42.1 °F 40.2 °F 39.9 °F 92% 29.83 in 10.0 mi North 3.5 mph - 0.12 in   Overcast
11:50 AM 39.2 °F 33.6 °F 39.2 °F 100% 29.98 in 10.0 mi ESE 8.1 mph - N/A   Overcast
11:57 AM 42.1 °F 40.2 °F 39.9 °F 92% 29.83 in 10.0 mi Variable 3.5 mph - N/A   Overcast
12:19 PM 41.0 °F 37.1 °F 39.2 °F 93% 29.99 in 10.0 mi East 5.8 mph - N/A   Overcast
12:32 PM 39.2 °F 33.6 °F 37.4 °F 93% 29.99 in 10.0 mi East 8.1 mph - N/A   Overcast
12:44 PM 39.2 °F 32.5 °F 37.4 °F 93% 29.98 in 10.0 mi East 10.4 mph - N/A   Overcast
12:57 PM 39.0 °F 33.4 °F 36.0 °F 89% 29.83 in 10.0 mi East 8.1 mph - N/A   Overcast
1:57 PM 39.0 °F 35.7 °F 36.0 °F 89% 29.83 in 10.0 mi South 4.6 mph - N/A   Overcast
2:10 PM 39.2 °F 35.0 °F 35.6 °F 87% 29.98 in 10.0 mi Variable 5.8 mph - N/A   Overcast
2:57 PM 39.0 °F 33.4 °F 36.0 °F 89% 29.83 in 10.0 mi East 8.1 mph - 0.00 in   Overcast
3:04 PM 39.2 °F 34.2 °F 37.4 °F 93% 29.98 in 10.0 mi East 6.9 mph - N/A   Overcast
3:43 PM 39.2 °F 32.0 °F 35.6 °F 87% 29.98 in 10.0 mi East 11.5 mph - N/A   Overcast
3:57 PM 39.0 °F 34.0 °F 36.0 °F 89% 29.84 in 10.0 mi East 6.9 mph - 0.00 in Rain Light Rain
4:13 PM 37.4 °F 30.3 °F 35.6 °F 93% 29.99 in 10.0 mi East 10.4 mph 19.6 mph 0.00 in   Overcast
4:23 PM 39.2 °F 32.5 °F 35.6 °F 87% 29.99 in 10.0 mi East 10.4 mph - 0.00 in   Overcast
4:57 PM 37.9 °F 32.7 °F 33.1 °F 83% 29.86 in 10.0 mi East 6.9 mph 19.6 mph 0.00 in   Overcast
5:30 PM 37.4 °F 29.8 °F 32.0 °F 81% 30.00 in 10.0 mi ENE 11.5 mph - N/A   Mostly Cloudy
5:40 PM 37.4 °F 28.5 °F 32.0 °F 81% 30.00 in 10.0 mi ENE 15.0 mph - N/A   Mostly Cloudy
5:57 PM 37.0 °F 29.3 °F 30.9 °F 79% 29.88 in 10.0 mi ENE 11.5 mph 23.0 mph N/A   Partly Cloudy
6:57 PM 35.1 °F 25.9 °F 30.9 °F 85% 29.92 in 10.0 mi ENE 13.8 mph - N/A   Partly Cloudy
7:57 PM 36.0 °F 25.3 °F 28.9 °F 76% 29.91 in 10.0 mi ENE 19.6 mph 25.3 mph N/A   Clear
8:57 PM 35.1 °F 23.5 °F 30.0 °F 82% 29.95 in 10.0 mi ENE 21.9 mph 28.8 mph N/A   Partly Cloudy
9:57 PM 34.0 °F 31.0 °F 30.0 °F 85% 29.99 in 10.0 mi Variable 3.5 mph - N/A   Clear
10:57 PM 33.1 °F 23.9 °F 28.0 °F 82% 29.98 in 10.0 mi NE 12.7 mph - N/A   Partly Cloudy
11:57 PM 34.0 °F 21.5 °F 25.0 °F 70% 29.96 in 10.0 mi NE 24.2 mph 33.4 mph N/A   Clear